OpenBCM V1.08-5-g2f4a (Linux)

Packet Radio Mailbox

IZ3LSV

[San Dona' di P. JN]

 Login: GUEST





  
I0OJJ  > KEPS     07.07.25 01:40l 343 Lines 16342 Bytes #59 (0) @ AMSAT
BID : ORB25188.1
Read: GUEST
Subj: 2Line Orbital Elements 25188.AMSAT
Path: IZ3LSV<IK6IHL<IK7NXU<HB9ON<HB9ON<PI8ZTM<VK2IO<VK2RZ<IR0AAB<I0OJJ
Sent: 250707/0025z @:I0OJJ.ITA.EU [Rome] obcm1.08-10-g596e
From: I0OJJ @ I0OJJ.ITA.EU (Gustavo)
To:   KEPS @ AMSAT
X-Info: This message was generated automatically


QST de W1STR

AMSAT Orbital Elements for Amateur Satellites in TLE Format
From Orbital Analysis Office
New England Sci-Tech STEM Education Center
Natick, MA July 07, 2025
To all radio amateurs


These element sets describe the orbits of various satellites 
in use by the amateur radio community. For details see:
www.amsat.org/keplerian-elements-formats/

A daily update of element sets is available at:
www.amsat.org/tle/daily-bulletin.txt
or without bulletin text:
www.amsat.org/tle/dailytle.txt


AO-07
1 07530U 74089B   25187.85828450 -.00000029  00000-0  11001-3 0  9994
2 07530 101.9930 192.4127 0012623  70.8573 356.1365 12.53689989317482
UO-11
1 14781U 84021B   25187.47369704  .00000980  00000-0  10877-3 0  9992
2 14781  97.7556 153.3133 0006378 242.9276 117.1291 14.89449409205648
AO-27
1 22825U 93061C   25187.77042333  .00000069  00000-0  43607-4 0  9999
2 22825  98.7354 249.4599 0009045  39.9352 320.2494 14.30806830657878
FO-29
1 24278U 96046B   25187.59017587 -.00000044  00000-0 -56824-5 0  9993
2 24278  98.5726  77.9257 0348831 272.6426  83.4837 13.53250088426421
NOAA-15
1 25338U 98030A   25187.80676856  .00000179  00000-0  91183-4 0  9993
2 25338  98.5339 212.2812 0008998 280.8835  79.1333 14.26992802412282
GO-32
1 25397U 98043D   25187.52678369  .00000054  00000-0  43336-4 0  9991
2 25397  98.9714 167.2100 0002234 112.3566 247.7848 14.24320592402129
ISS
1 25544U 98067A   25187.53749832  .00007443  00000-0  13634-3 0  9992
2 25544  51.6339 211.1650 0002531 341.3331  18.7565 15.50400814518165
NO-44
1 26931U 01043C   25187.05133223  .00000083  00000-0  62044-4 0  9992
2 26931  67.0512  59.3980 0006193 276.8432  83.1965 14.31745163240899
SO-50
1 27607U 02058C   25187.21343966  .00001167  00000-0  16217-3 0  9999
2 27607  64.5526 118.3198 0059281 328.2098  31.5433 14.81689921213172
CO-55
1 27844U 03031E   25187.59100587  .00000257  00000-0  13084-3 0  9993
2 27844  98.6755 195.5155 0010865 107.0884 253.1486 14.24013526142516
CO-57
1 27848U 03031J   25187.55205272  .00000215  00000-0  11394-3 0  9996
2 27848  98.6782 195.4626 0010568 122.6833 237.5366 14.23345830142258
RS-22
1 27939U 03042A   25187.86780131  .00000778  00000-0  13113-3 0  9990
2 27939  98.3299 357.9817 0010158 285.2756 211.7261 14.72404654164842
CO-58
1 28895U 05043F   25187.38582290  .00001231  00000-0  20851-3 0  9990
2 28895  98.2530 332.0767 0013764 217.8806 142.1432 14.71083655 50880
CO-65
1 32785U 08021C   25187.54063170  .00004673  00000-0  33662-3 0  9998
2 32785  97.7850 158.9081 0011011 117.9506 242.2836 15.04633036933135
CO-66
1 32791U 08021J   25187.91024603  .00009316  00000-0  44526-3 0  9994
2 32791  97.7277 168.5719 0005705  82.6134 277.5748 15.19230662934721
RS-30
1 32953U 08025A   25187.84532452  .00000042  00000-0  23113-3 0  9992
2 32953  82.5010 210.2222 0018913 350.3064   9.7648 12.43165983776921
NOAA-19
1 33591U 09005A   25187.81252863  .00000145  00000-0  10149-3 0  9991
2 33591  98.9962 252.6686 0012677 288.0555  71.9235 14.13385797845953
SRMSAT
1 37841U 11058D   25187.60409712  .00000371  00000-0  57877-4 0  9999
2 37841  19.9737 351.0150 0011808   2.4495  66.0394 14.11442649708939
ZACUBE-1
1 39417U 13066B   25187.86181331  .00003267  00000-0  28485-3 0  9992
2 39417  97.7799 144.7357 0043153 322.6204  37.2017 14.96869343628997
Delfi-N3xt
1 39428U 13066N   25187.71843189  .00004794  00000-0  48827-3 0  9992
2 39428  97.8335 105.0704 0082504 271.3217  87.8550 14.88679023623295
GOMX-1
1 39430U 13066Q   25187.82483797  .00001583  00000-0  25046-3 0  9993
2 39430  97.6813  44.8141 0133775 105.0478 256.5576 14.67727248619402
LO-74
1 39440U 13066AA  25187.40546273  .00003250  00000-0  32971-3 0  9995
2 39440  97.8497 131.7828 0063572  91.4977 269.3524 14.90077833625439
AO-73
1 39444U 13066AE  25187.85186134  .00005619  00000-0  41881-3 0  9995
2 39444  97.7802 149.8745 0041036 295.0919  64.6050 15.02634932628277
DTUSAT-2
1 40030U 14033W   25187.42266155  .00005300  00000-0  34361-3 0  9990
2 40030  98.0553 160.5461 0008318 339.4246  20.6645 15.08546916600445
EO-80
1 40032U 14033Y   25187.90575310  .00004016  00000-0  26092-3 0  9996
2 40032  98.0440 160.6703 0006615 267.4112  92.6358 15.08633617601011
LILACSAT-2
1 40908U 15049K   25187.84945580  .00009217  00000-0  23705-3 0  9995
2 40908  97.5049 208.8615 0010740  69.1847 291.0547 15.39439367542429
IO-86
1 40931U 15052B   25151.18580175  .00001241  00000-0  78118-4 0  9996
2 40931   6.0006  24.0987 0012733 338.8432  21.1169 14.78805930523047
Horyu-4
1 41340U 16012D   25187.61513387  .00018715  00000-0  48328-3 0  9999
2 41340  30.9975 309.9920 0006435 348.5509  11.4989 15.37862650516952
Lapan A3
1 41603U 16040E   25187.90506775  .00002484  00000-0  87843-4 0  9999
2 41603  97.1368 191.4426 0011477 162.5629 197.6008 15.30012157501965
CAS-2T
1 41847U 16066G   25187.78508152  .00001350  00000-0  19854-3 0  9991
2 41847  98.4195 262.0087 0347073  96.2221 267.8618 14.43565571454948
CAS-4B
1 42759U 17034B   25187.91083944  .00059593  00000-0  54734-3 0  9990
2 42759  43.0042 158.5784 0019129 123.7608 236.5083 15.66623265446888
CAS-4A
1 42761U 17034D   25187.91998203  .00065352  00000-0  56302-3 0  9999
2 42761  43.0079 155.3557 0020309 129.0809 231.1868 15.68127294446917
TechnoSat
1 42829U 17042E   25187.82895291  .00002399  00000-0  18785-3 0  9991
2 42829  97.3846 355.2320 0016442 182.2007 177.9149 15.01818980434810
AO-91
1 43017U 17073E   25187.58886371  .00008773  00000-0  44348-3 0  9993
2 43017  97.5224  57.6766 0172907  74.7623 287.2647 15.05106312413275
S-Net D
1 43186U 18014G   25187.63359262  .00003383  00000-0  20047-3 0  9998
2 43186  97.5603  90.2650 0010466 125.7540 234.4665 15.12029722406468
S-Net B
1 43187U 18014H   25187.70552715  .00003265  00000-0  19364-3 0  9994
2 43187  97.5610  90.3094 0011273 121.7702 238.4628 15.12010663406471
S-Net A
1 43188U 18014J   25187.63389026  .00003402  00000-0  20149-3 0  9996
2 43188  97.5616  90.3921 0011114 122.6660 237.5644 15.12034726406467
S-Net C
1 43189U 18014K   25187.24474803  .00003435  00000-0  20349-3 0  9990
2 43189  97.5635  90.0254 0012762 117.8246 242.4279 15.12003401404958
Ten-Koh
1 43677U 18084G   25187.46788715  .00001813  00000-0  14833-3 0  9992
2 43677  98.0848   0.7880 0007928 161.9872 198.1633 15.00672181364273
PO-101
1 43678U 18084H   25187.83481913  .00002038  00000-0  17604-3 0  9993
2 43678  98.1039   5.0000 0008499 184.2124 175.9027 14.98423514364462
QO-100
1 43700U 18090A   25187.85971413  .00000161  00000-0  00000+0 0  9990
2 43700   0.0191  69.6800 0002536  67.9699 122.7117  1.00273886 24459
MinXSS-2
1 43758U 18099A   25187.73822164  .00013959  00000-0  53720-3 0  9997
2 43758  97.5012 253.8718 0012688  65.9532 294.3033 15.26421605361110
AO-95
1 43770U 18099N   25187.68524786  .00007363  00000-0  36858-3 0  9999
2 43770  97.4908 245.4752 0012235 116.0595 244.1900 15.17628556360666
RANGE-A
1 43773U 18099R   25187.71836198  .00003447  00000-0  21980-3 0  9998
2 43773  97.4471 235.3337 0013129  98.6967 261.5750 15.09292384360317
MOVE-II
1 43780U 18099Y   25187.28696379  .00991071  48028-3  20190-2 0  9998
2 43780  97.4610 265.3650 0009893 246.3143 113.7097 15.99472804362031
SNUSat 2
1 43782U 18099AA  25187.82242210  .00005836  00000-0  31590-3 0  9998
2 43782  97.4589 242.1393 0013257  64.7958 295.4647 15.14941058360621
SnugLite
1 43784U 18099AC  25187.70948493  .00007772  00000-0  38566-3 0  9994
2 43784  97.4399 241.6448 0004861  74.6831 285.4940 15.17967415360755
ITASat 1
1 43786U 18099AE  25187.59409853  .00004837  00000-0  27523-3 0  9995
2 43786  97.4552 241.3453 0015955 111.7666 248.5265 15.13207200360548
EAGLET 1
1 43790U 18099AJ  25187.60265262  .00003137  00000-0  20068-3 0  9995
2 43790  97.4754 241.2203 0013838  97.0016 263.2787 15.09240927360149
ESEO
1 43792U 18099AL  25187.70386815  .00000622  00000-0  50853-4 0  9998
2 43792  97.4450 234.2210 0014570  71.7844 288.4966 15.02691616359892
CSIM
1 43793U 18099AM  25187.77347497  .00149873  00000-0  69776-3 0  9994
2 43793  97.4779 267.9048 0002152 148.4757 211.6641 15.82945500361935
JO-97
1 43803U 18099AX  25187.68760574  .00009407  00000-0  42263-3 0  9991
2 43803  97.4651 246.5278 0008507  60.1552 300.0528 15.21334606360890
Suomi 100
1 43804U 18099AY  25187.87809588  .00007035  00000-0  34045-3 0  9996
2 43804  97.4719 245.9339 0013451  58.7519 301.5031 15.18812806360846
ISAT
1 43879U 18111D   25187.30377390  .00017171  00000-0  57926-3 0  9997
2 43879  97.5940 102.3006 0010794 102.3021 257.9429 15.30723191357789
UWE-4
1 43880U 18111E   25187.29026609  .00012411  00000-0  47654-3 0  9990
2 43880  97.5883 100.5756 0013752 113.5100 246.7584 15.26516071357700
Sparrow
1 43881U 18111F   25187.32906361  .00017762  00000-0  57600-3 0  9993
2 43881  97.6087 105.3097 0008446 132.5665 227.6290 15.32012124357888
Prox-1
1 44339U 19036A   25187.31410346  .00007711  00000-0  95348-3 0  9995
2 44339  23.9964 246.1296 0007558  23.2427 336.8411 14.80386373321985
SONATE
1 44400U 19038Q   25185.47540524  .09032085  27445-5  31847-3 0  9995
2 44400  97.6609 216.4776 0012462 246.7970 113.2018 16.43248376333575
Taurus 1
1 44530U 19059C   25187.89145381  .00004392  00000-0  80893-3 0  9991
2 44530  98.6089 328.5891 0007961 313.8746  46.1798 14.66095548307945
Duchifat 3
1 44854U 19089C   25187.33431084  .00040693  00000-0  74149-3 0  9991
2 44854  36.9405 184.8263 0005252 197.4520 162.6057 15.48497329307164
TO-108
1 44881U 19093C   25187.83794718  .00000691  00000-0  85810-4 0  9999
2 44881  97.7919 262.9177 0014800 137.8916 222.3439 14.85645348300120
